QPF
0.00 0.00 0.00 0.00 0.00 0.00 0.00 0.00 0.00 0.00 0.01 0.01 0.01 0.01 0.02 0.01 0.01 0.01 0.02 0.02 0.03 0.02 0.03 0.04 0.05 0.07 0.08 0.08 0.10 0.12 0.11 0.10 0.08 0.08 0.09 0.09 0.07 0.06 0.06 0.05 0.04 0.04 0.04 0.06
0.00 0.00 0.00 0.00 0.00 0.00 0.00 0.00 0.00 0.00 0.01 0.01 0.01 0.02 0.03 0.02 0.01 0.01 0.01 0.01 0.02 0.03 0.03 0.04 0.05 0.08 0.10 0.10 0.10 0.11 0.10 0.11 0.09 0.09 0.10 0.09 0.06 0.04 0.03 0.04 0.04 0.05 0.07 0.07
0.00 0.00 0.00 0.00 0.00 0.00 0.00 0.00 0.00 0.00 0.01 0.01 0.00 0.01 0.02 0.01 0.01 0.01 0.01 0.01 0.01 0.03 0.04 0.04 0.06 0.09 0.11 0.11 0.11 0.10 0.09 0.10 0.10 0.09 0.08 0.07 0.05 0.03 0.03 0.03 0.04 0.05 0.06 0.08
0.00 0.00 0.00 0.00 0.00 0.00 0.00 0.00 0.00 0.00 0.00 0.01 0.00 0.00 0.01 0.02 0.01 0.01 0.01 0.01 0.01 0.02 0.04 0.05 0.07 0.09 0.11 0.13 0.15 0.15 0.14 0.13 0.13 0.11 0.10 0.09 0.08 0.06 0.05 0.04 0.04 0.05 0.06 0.07
0.00 0.00 0.00 0.00 0.00 0.00 0.00 0.00 0.00 0.00 0.00 0.00 0.00 0.01 0.01 0.02 0.01 0.01 0.01 0.01 0.02 0.03 0.04 0.05 0.06 0.08 0.12 0.15 0.15 0.15 0.15 0.16 0.14 0.13 0.14 0.15 0.13 0.08 0.05 0.05 0.05 0.04 0.05 0.07
0.00 0.00 0.00 0.00 0.00 0.00 0.00 0.00 0.00 0.00 0.00 0.00 0.01 0.03 0.05 0.04 0.02 0.01 0.01 0.01 0.03 0.03 0.04 0.06 0.07 0.09 0.11 0.14 0.14 0.13 0.14 0.16 0.15 0.15 0.18 0.18 0.13 0.09 0.05 0.05 0.04 0.05 0.05 0.04
0.00 0.00 0.00 0.00 0.00 0.00 0.00 0.00 0.00 0.00 0.00 0.00 0.01 0.02 0.05 0.05 0.03 0.02 0.02 0.02 0.02 0.04 0.06 0.06 0.06 0.08 0.09 0.12 0.12 0.14 0.15 0.15 0.15 0.17 0.19 0.13 0.11 0.09 0.05 0.04 0.03 0.04 0.03 0.02
0.00 0.00 0.00 0.00 0.00 0.00 0.00 0.00 0.00 0.00 0.00 0.00 0.01 0.02 0.06 0.04 0.03 0.02 0.02 0.03 0.02 0.02 0.04 0.05 0.07 0.09 0.07 0.09 0.13 0.16 0.18 0.18 0.16 0.16 0.13 0.10 0.09 0.08 0.06 0.05 0.04 0.03 0.03 0.02
0.00 0.00 0.00 0.00 0.00 0.00 0.00 0.00 0.00 0.00 0.00 0.01 0.02 0.05 0.06 0.04 0.03 0.02 0.03 0.03 0.03 0.03 0.03 0.05 0.06 0.08 0.07 0.09 0.13 0.15 0.19 0.24 0.19 0.12 0.08 0.06 0.06 0.07 0.06 0.05 0.04 0.04 0.04 0.03
0.00 0.00 0.00 0.00 0.00 0.00 0.00 0.00 0.00 0.00 0.00 0.01 0.02 0.03 0.04 0.03 0.04 0.03 0.03 0.04 0.03 0.04 0.04 0.05 0.07 0.08 0.08 0.09 0.09 0.09 0.14 0.21 0.21 0.13 0.07 0.05 0.05 0.07 0.07 0.06 0.05 0.04 0.04 0.04
0.00 0.00 0.00 0.00 0.00 0.00 0.00 0.00 0.00 0.00 0.00 0.01 0.02 0.03 0.04 0.03 0.03 0.03 0.03 0.03 0.03 0.03 0.03 0.04 0.05 0.07 0.07 0.06 0.06 0.05 0.06 0.10 0.14 0.11 0.07 0.04 0.04 0.07 0.07 0.06 0.05 0.05 0.04 0.03
0.00 0.00 0.00 0.00 0.00 0.00 0.00 0.00 0.00 0.00 0.00 0.00 0.02 0.05 0.06 0.03 0.02 0.03 0.02 0.02 0.02 0.02 0.02 0.03 0.04 0.07 0.07 0.05 0.05 0.06 0.05 0.05 0.07 0.07 0.05 0.03 0.02 0.03 0.04 0.06 0.08 0.06 0.04 0.04
0.01 0.01 0.01 0.01 0.01 0.01 0.01 0.00 0.00 0.00 0.00 0.02 0.05 0.08 0.07 0.02 0.02 0.01 0.02 0.02 0.01 0.01 0.02 0.02 0.03 0.06 0.06 0.04 0.03 0.04 0.05 0.03 0.03 0.04 0.04 0.02 0.03 0.03 0.03 0.04 0.07 0.06 0.04 0.04
0.01 0.01 0.01 0.01 0.01 0.01 0.01 0.00 0.00 0.00 0.00 0.01 0.04 0.05 0.02 0.01 0.01 0.01 0.02 0.02 0.02 0.01 0.01 0.01 0.02 0.03 0.04 0.04 0.03 0.02 0.01 0.01 0.01 0.01 0.03 0.03 0.02 0.03 0.03 0.03 0.03 0.04 0.05 0.06
0.01 0.01 0.01 0.02 0.01 0.01 0.01 0.00 0.00 0.00 0.01 0.01 0.01 0.02 0.01 0.01 0.01 0.02 0.02 0.02 0.01 0.01 0.01 0.01 0.02 0.02 0.03 0.03 0.03 0.02 0.01 0.01 0.01 0.01 0.02 0.02 0.02 0.02 0.03 0.03 0.03 0.04 0.04 0.05
0.01 0.01 0.03 0.03 0.01 0.01 0.00 0.00 0.00 0.01 0.01 0.00 0.00 0.01 0.01 0.01 0.01 0.01 0.01 0.01 0.01 0.01 0.01 0.01 0.01 0.01 0.02 0.01 0.02 0.02 0.01 0.01 0.01 0.01 0.02 0.03 0.03 0.02 0.01 0.02 0.03 0.04 0.05 0.07
0.01 0.01 0.01 0.01 0.01 0.00 0.01 0.01 0.01 0.01 0.01 0.01 0.01 0.01 0.01 0.01 0.01 0.01 0.01 0.01 0.01 0.01 0.01 0.01 0.01 0.01 0.01 0.01 0.01 0.02 0.02 0.03 0.02 0.02 0.02 0.02 0.03 0.02 0.01 0.01 0.02 0.04 0.07 0.09
0.01 0.01 0.00 0.00 0.00 0.01 0.01 0.01 0.01 0.01 0.01 0.01 0.01 0.01 0.01 0.01 0.01 0.01 0.01 0.01 0.01 0.01 0.01 0.01 0.02 0.02 0.01 0.01 0.01 0.02 0.03 0.02 0.01 0.01 0.01 0.02 0.02 0.02 0.02 0.02 0.02 0.04 0.05 0.07
0.00 0.00 0.00 0.00 0.00 0.00 0.01 0.01 0.00 0.01 0.01 0.01 0.01 0.01 0.01 0.01 0.01 0.02 0.01 0.01 0.01 0.01 0.02 0.03 0.03 0.02 0.01 0.00 0.01 0.02 0.03 0.01 0.01 0.01 0.01 0.01 0.02 0.02 0.02 0.02 0.04 0.05 0.05 0.06
0.01 0.01 0.01 0.00 0.00 0.00 0.01 0.01 0.00 0.00 0.01 0.01 0.01 0.01 0.01 0.01 0.01 0.02 0.02 0.01 0.01 0.02 0.02 0.03 0.03 0.02 0.01 0.01 0.03 0.03 0.02 0.01 0.01 0.01 0.01 0.01 0.02 0.02 0.02 0.03 0.04 0.05 0.05 0.06
0.01 0.01 0.01 0.00 0.00 0.01 0.01 0.00 0.01 0.01 0.01 0.01 0.01 0.01 0.01 0.01 0.01 0.01 0.01 0.01 0.01 0.02 0.03 0.03 0.02 0.02 0.01 0.01 0.03 0.04 0.03 0.02 0.01 0.01 0.01 0.01 0.01 0.01 0.02 0.02 0.04 0.04 0.04 0.05
0.01 0.01 0.00 0.00 0.00 0.01 0.01 0.01 0.01 0.01 0.01 0.00 0.00 0.01 0.01 0.01 0.01 0.01 0.01 0.01 0.01 0.02 0.03 0.02 0.02 0.03 0.02 0.02 0.02 0.04 0.03 0.02 0.01 0.01 0.01 0.00 0.01 0.02 0.02 0.02 0.03 0.03 0.03 0.04
0.01 0.01 0.00 0.00 0.00 0.00 0.01 0.01 0.01 0.01 0.01 0.00 0.00 0.00 0.01 0.01 0.01 0.01 0.01 0.00 0.01 0.02 0.02 0.02 0.03 0.03 0.02 0.02 0.01 0.02 0.02 0.01 0.01 0.01 0.00 0.00 0.01 0.01 0.02 0.02 0.02 0.02 0.03 0.02
0.01 0.00 0.00 0.00 0.00 0.00 0.01 0.01 0.01 0.00 0.00 0.00 0.00 0.00 0.00 0.01 0.00 0.01 0.01 0.01 0.01 0.01 0.01 0.01 0.01 0.01 0.01 0.01 0.02 0.02 0.01 0.01 0.01 0.00 0.00 0.00 0.00 0.01 0.01 0.02 0.02 0.03 0.03 0.02
0.00 0.00 0.00 0.00 0.00 0.00 0.00 0.00 0.01 0.00 0.00 0.00 0.00 0.01 0.01 0.01 0.00 0.00 0.00 0.01 0.01 0.01 0.01 0.01 0.01 0.00 0.00 0.01 0.02 0.03 0.02 0.01 0.01 0.00 0.00 0.00 0.00 0.00 0.01 0.01 0.02 0.03 0.02 0.02
0.00 0.01 0.01 0.01 0.01 0.01 0.01 0.01 0.00 0.00 0.00 0.00 0.00 0.01 0.01 0.01 0.01 0.01 0.00 0.01 0.02 0.02 0.01 0.01 0.00 0.00 0.00 0.01 0.01 0.02 0.02 0.01 0.00 0.00 0.00 0.00 0.00 0.01 0.01 0.01 0.02 0.02 0.02 0.01
MSLP
1008.76 1009.60 1010.23 1010.61 1010.75 1010.69 1010.50 1010.24 1009.95 1009.66 1009.38 1009.11 1008.83 1008.55 1008.25 1007.97 1007.73 1007.55 1007.46 1007.45 1007.54 1007.70 1007.91 1008.13 1008.37 1008.59 1008.83 1009.09 1009.39 1009.75 1010.20 1010.71 1011.29 1011.89 1012.49 1013.05 1013.53 1013.94 1014.25 1014.48 1014.65 1014.78 1014.90 1015.01
1008.66 1009.35 1009.84 1010.13 1010.23 1010.19 1010.07 1009.92 1009.76 1009.61 1009.44 1009.24 1008.99 1008.69 1008.34 1007.98 1007.66 1007.41 1007.27 1007.27 1007.38 1007.59 1007.85 1008.14 1008.43 1008.69 1008.93 1009.19 1009.48 1009.84 1010.29 1010.82 1011.43 1012.06 1012.69 1013.27 1013.76 1014.15 1014.42 1014.61 1014.73 1014.82 1014.90 1014.99
1008.41 1008.92 1009.27 1009.47 1009.56 1009.57 1009.56 1009.55 1009.56 1009.56 1009.53 1009.41 1009.19 1008.87 1008.46 1008.02 1007.61 1007.28 1007.09 1007.06 1007.18 1007.42 1007.74 1008.09 1008.43 1008.73 1009.01 1009.28 1009.58 1009.95 1010.42 1010.97 1011.60 1012.26 1012.91 1013.51 1014.00 1014.37 1014.61 1014.76 1014.83 1014.87 1014.91 1014.97
1008.10 1008.42 1008.63 1008.76 1008.84 1008.93 1009.04 1009.21 1009.40 1009.57 1009.68 1009.66 1009.48 1009.14 1008.68 1008.16 1007.66 1007.25 1006.99 1006.92 1007.04 1007.30 1007.66 1008.06 1008.44 1008.79 1009.11 1009.41 1009.73 1010.12 1010.60 1011.17 1011.82 1012.50 1013.16 1013.76 1014.24 1014.59 1014.80 1014.90 1014.93 1014.92 1014.91 1014.93
1007.87 1007.98 1008.06 1008.12 1008.21 1008.38 1008.63 1008.96 1009.34 1009.68 1009.93 1010.00 1009.87 1009.54 1009.04 1008.45 1007.86 1007.37 1007.06 1006.95 1007.05 1007.32 1007.70 1008.14 1008.57 1008.96 1009.31 1009.64 1009.98 1010.38 1010.87 1011.44 1012.09 1012.77 1013.43 1014.01 1014.47 1014.78 1014.96 1015.01 1014.99 1014.93 1014.87 1014.83
1007.84 1007.76 1007.71 1007.70 1007.80 1008.03 1008.40 1008.88 1009.42 1009.92 1010.29 1010.45 1010.37 1010.05 1009.52 1008.88 1008.24 1007.69 1007.32 1007.18 1007.26 1007.54 1007.95 1008.42 1008.88 1009.30 1009.68 1010.02 1010.37 1010.77 1011.24 1011.80 1012.42 1013.07 1013.69 1014.24 1014.66 1014.93 1015.06 1015.07 1014.99 1014.87 1014.76 1014.66
1008.10 1007.86 1007.68 1007.61 1007.69 1007.96 1008.41 1009.01 1009.66 1010.27 1010.74 1010.98 1010.94 1010.63 1010.10 1009.44 1008.76 1008.18 1007.79 1007.63 1007.71 1008.00 1008.42 1008.91 1009.40 1009.84 1010.23 1010.57 1010.91 1011.28 1011.71 1012.21 1012.78 1013.37 1013.93 1014.42 1014.79 1015.01 1015.08 1015.03 1014.90 1014.73 1014.56 1014.41
1008.68 1008.30 1008.01 1007.86 1007.92 1008.20 1008.68 1009.33 1010.05 1010.72 1011.24 1011.53 1011.52 1011.23 1010.71 1010.04 1009.37 1008.79 1008.40 1008.25 1008.34 1008.65 1009.09 1009.60 1010.11 1010.56 1010.94 1011.26 1011.56 1011.87 1012.23 1012.66 1013.14 1013.64 1014.13 1014.54 1014.83 1014.99 1015.01 1014.91 1014.73 1014.51 1014.28 1014.08
1009.53 1009.04 1008.65 1008.44 1008.45 1008.69 1009.16 1009.81 1010.53 1011.22 1011.75 1012.04 1012.04 1011.77 1011.26 1010.62 1009.97 1009.42 1009.06 1008.95 1009.07 1009.40 1009.87 1010.40 1010.91 1011.36 1011.72 1012.01 1012.25 1012.49 1012.76 1013.08 1013.46 1013.86 1014.24 1014.57 1014.79 1014.88 1014.84 1014.70 1014.47 1014.21 1013.94 1013.69
1010.52 1009.96 1009.51 1009.23 1009.18 1009.37 1009.79 1010.39 1011.06 1011.70 1012.20 1012.47 1012.47 1012.19 1011.71 1011.10 1010.49 1009.99 1009.69 1009.62 1009.78 1010.15 1010.65 1011.19 1011.70 1012.14 1012.47 1012.71 1012.88 1013.04 1013.21 1013.43 1013.69 1013.98 1014.26 1014.49 1014.64 1014.67 1014.59 1014.40 1014.14 1013.85 1013.54 1013.26
1011.51 1010.92 1010.43 1010.11 1010.00 1010.12 1010.47 1010.99 1011.59 1012.15 1012.58 1012.80 1012.76 1012.48 1012.01 1011.44 1010.88 1010.44 1010.18 1010.16 1010.38 1010.78 1011.29 1011.85 1012.36 1012.77 1013.07 1013.26 1013.37 1013.44 1013.51 1013.62 1013.78 1013.96 1014.15 1014.31 1014.39 1014.38 1014.26 1014.05 1013.77 1013.45 1013.12 1012.81
1012.35 1011.77 1011.28 1010.94 1010.79 1010.87 1011.15 1011.58 1012.09 1012.56 1012.91 1013.06 1012.98 1012.67 1012.21 1011.66 1011.13 1010.73 1010.52 1010.54 1010.78 1011.20 1011.73 1012.28 1012.78 1013.17 1013.44 1013.58 1013.63 1013.63 1013.63 1013.65 1013.72 1013.82 1013.93 1014.02 1014.06 1014.02 1013.88 1013.65 1013.36 1013.03 1012.68 1012.36
1013.01 1012.46 1011.99 1011.66 1011.51 1011.56 1011.80 1012.16 1012.59 1012.97 1013.23 1013.31 1013.17 1012.83 1012.35 1011.80 1011.29 1010.91 1010.72 1010.75 1010.99 1011.41 1011.92 1012.45 1012.93 1013.30 1013.54 1013.65 1013.66 1013.61 1013.55 1013.51 1013.51 1013.55 1013.61 1013.66 1013.67 1013.61 1013.46 1013.23 1012.93 1012.59 1012.23 1011.88
1013.49 1013.00 1012.58 1012.30 1012.17 1012.23 1012.45 1012.78 1013.14 1013.45 1013.64 1013.64 1013.44 1013.06 1012.54 1011.97 1011.44 1011.04 1010.82 1010.83 1011.04 1011.41 1011.89 1012.38 1012.83 1013.17 1013.38 1013.47 1013.46 1013.38 1013.29 1013.22 1013.19 1013.19 1013.23 1013.25 1013.25 1013.17 1013.02 1012.79 1012.49 1012.13 1011.76 1011.38
1013.90 1013.48 1013.13 1012.91 1012.85 1012.94 1013.18 1013.49 1013.82 1014.08 1014.21 1014.14 1013.88 1013.43 1012.85 1012.23 1011.64 1011.19 1010.91 1010.84 1010.98 1011.28 1011.69 1012.12 1012.52 1012.83 1013.02 1013.10 1013.09 1013.01 1012.92 1012.84 1012.80 1012.79 1012.81 1012.83 1012.82 1012.74 1012.59 1012.35 1012.04 1011.67 1011.26 1010.85
1014.41 1014.05 1013.78 1013.64 1013.65 1013.80 1014.07 1014.40 1014.71 1014.93 1014.99 1014.86 1014.53 1014.00 1013.35 1012.65 1011.98 1011.43 1011.05 1010.87 1010.90 1011.10 1011.41 1011.77 1012.10 1012.38 1012.55 1012.63 1012.63 1012.57 1012.50 1012.43 1012.40 1012.40 1012.42 1012.43 1012.41 1012.33 1012.17 1011.92 1011.58 1011.19 1010.74 1010.28
1015.16 1014.86 1014.67 1014.61 1014.69 1014.90 1015.19 1015.53 1015.82 1016.00 1016.01 1015.81 1015.40 1014.79 1014.04 1013.24 1012.46 1011.78 1011.28 1010.97 1010.86 1010.93 1011.13 1011.39 1011.66 1011.90 1012.06 1012.15 1012.17 1012.14 1012.10 1012.06 1012.04 1012.05 1012.07 1012.08 1012.05 1011.95 1011.77 1011.49 1011.13 1010.70 1010.21 1009.69
1016.27 1016.02 1015.89 1015.88 1016.01 1016.25 1016.57 1016.89 1017.14 1017.27 1017.21 1016.93 1016.42 1015.72 1014.87 1013.95 1013.05 1012.25 1011.60 1011.14 1010.89 1010.82 1010.90 1011.07 1011.27 1011.47 1011.62 1011.72 1011.77 1011.78 1011.77 1011.76 1011.77 1011.78 1011.79 1011.79 1011.73 1011.61 1011.40 1011.09 1010.69 1010.21 1009.67 1009.09
1017.75 1017.54 1017.44 1017.46 1017.60 1017.84 1018.12 1018.39 1018.58 1018.62 1018.47 1018.09 1017.48 1016.67 1015.72 1014.69 1013.68 1012.75 1011.97 1011.38 1010.99 1010.79 1010.75 1010.83 1010.97 1011.13 1011.28 1011.39 1011.47 1011.52 1011.54 1011.56 1011.58 1011.59 1011.59 1011.55 1011.46 1011.30 1011.05 1010.70 1010.25 1009.73 1009.14 1008.50
1019.52 1019.34 1019.24 1019.25 1019.36 1019.54 1019.74 1019.91 1019.98 1019.90 1019.63 1019.13 1018.42 1017.51 1016.47 1015.35 1014.24 1013.21 1012.32 1011.62 1011.12 1010.82 1010.69 1010.69 1010.78 1010.91 1011.05 1011.18 1011.28 1011.35 1011.40 1011.44 1011.45 1011.45 1011.42 1011.35 1011.22 1011.01 1010.71 1010.31 1009.83 1009.26 1008.63 1007.96
1021.44 1021.26 1021.14 1021.10 1021.12 1021.19 1021.25 1021.27 1021.19 1020.97 1020.55 1019.93 1019.11 1018.11 1016.99 1015.81 1014.64 1013.55 1012.60 1011.82 1011.25 1010.87 1010.68 1010.62 1010.67 1010.78 1010.92 1011.06 1011.18 1011.27 1011.34 1011.37 1011.38 1011.35 1011.28 1011.16 1010.97 1010.71 1010.36 1009.92 1009.41 1008.82 1008.17 1007.48
1023.32 1023.12 1022.96 1022.82 1022.72 1022.63 1022.52 1022.36 1022.09 1021.69 1021.12 1020.37 1019.45 1018.39 1017.22 1016.01 1014.82 1013.72 1012.75 1011.95 1011.35 1010.93 1010.70 1010.62 1010.64 1010.74 1010.87 1011.01 1011.14 1011.24 1011.30 1011.33 1011.31 1011.25 1011.13 1010.96 1010.71 1010.40 1010.01 1009.54 1009.00 1008.40 1007.76 1007.09
1024.99 1024.77 1024.53 1024.28 1024.02 1023.75 1023.44 1023.06 1022.60 1022.01 1021.29 1020.42 1019.42 1018.32 1017.14 1015.94 1014.78 1013.70 1012.76 1011.99 1011.39 1010.98 1010.74 1010.65 1010.66 1010.75 1010.87 1011.01 1011.13 1011.23 1011.28 1011.28 1011.23 1011.12 1010.96 1010.73 1010.44 1010.08 1009.65 1009.16 1008.62 1008.04 1007.42 1006.79
1026.34 1026.07 1025.74 1025.37 1024.95 1024.48 1023.96 1023.38 1022.72 1021.96 1021.09 1020.13 1019.08 1017.95 1016.80 1015.64 1014.55 1013.54 1012.67 1011.95 1011.40 1011.01 1010.79 1010.70 1010.71 1010.78 1010.90 1011.02 1011.13 1011.20 1011.23 1011.20 1011.12 1010.97 1010.76 1010.49 1010.15 1009.76 1009.32 1008.83 1008.30 1007.75 1007.18 1006.60
1027.31 1026.99 1026.57 1026.07 1025.49 1024.85 1024.14 1023.37 1022.53 1021.62 1020.64 1019.60 1018.52 1017.40 1016.29 1015.21 1014.20 1013.29 1012.51 1011.87 1011.38 1011.04 1010.84 1010.76 1010.77 1010.83 1010.93 1011.03 1011.11 1011.16 1011.15 1011.09 1010.98 1010.79 1010.55 1010.25 1009.89 1009.49 1009.04 1008.57 1008.08 1007.58 1007.07 1006.56
1027.92 1027.55 1027.05 1026.44 1025.73 1024.94 1024.07 1023.15 1022.17 1021.14 1020.08 1018.99 1017.89 1016.80 1015.75 1014.75 1013.84 1013.03 1012.34 1011.79 1011.37 1011.08 1010.90 1010.83 1010.82 1010.87 1010.94 1011.01 1011.06 1011.08 1011.04 1010.96 1010.81 1010.61 1010.36 1010.04 1009.69 1009.30 1008.88 1008.44 1008.00 1007.56 1007.12 1006.69
Thickness
5737 5723 5715 5720 5724 5725 5722 5716 5712 5718 5729 5723 5717 5716 5721 5726 5727 5726 5725 5726 5726 5727 5731 5733 5734 5734 5732 5730 5727 5723 5721 5719 5716 5714 5711 5709 5706 5705 5703 5701 5699 5697 5694 5691
5724 5719 5731 5735 5732 5726 5721 5713 5711 5716 5727 5721 5712 5712 5718 5721 5721 5721 5721 5721 5721 5722 5724 5726 5727 5727 5725 5723 5721 5718 5715 5714 5711 5708 5706 5703 5700 5699 5697 5695 5693 5691 5689 5687
5725 5731 5740 5735 5728 5722 5719 5713 5713 5712 5717 5718 5712 5705 5710 5715 5719 5719 5719 5718 5718 5718 5717 5718 5718 5718 5717 5716 5715 5713 5710 5708 5706 5703 5699 5696 5694 5692 5689 5688 5687 5685 5683 5681
5729 5737 5737 5732 5727 5724 5714 5726 5723 5716 5703 5694 5702 5686 5701 5706 5709 5711 5712 5712 5712 5712 5712 5712 5712 5711 5710 5710 5710 5707 5705 5703 5701 5698 5695 5692 5688 5685 5684 5682 5681 5680 5678 5676
5729 5737 5733 5728 5730 5729 5724 5728 5721 5713 5701 5692 5694 5684 5689 5700 5699 5703 5706 5707 5707 5706 5706 5706 5706 5705 5705 5704 5703 5702 5700 5699 5696 5694 5691 5687 5684 5682 5680 5678 5676 5674 5672 5670
5732 5741 5738 5734 5737 5734 5728 5719 5710 5698 5690 5679 5686 5680 5679 5689 5696 5701 5703 5702 5701 5700 5700 5700 5700 5700 5699 5699 5697 5696 5695 5692 5691 5689 5686 5683 5680 5677 5675 5672 5669 5667 5665 5665
5718 5729 5735 5737 5726 5725 5716 5697 5679 5676 5667 5670 5684 5678 5679 5695 5699 5699 5697 5696 5695 5694 5693 5692 5692 5692 5692 5692 5691 5689 5687 5686 5686 5684 5681 5678 5675 5672 5669 5667 5664 5662 5660 5659
5699 5702 5722 5727 5721 5712 5707 5696 5671 5661 5658 5664 5676 5673 5681 5695 5697 5697 5695 5692 5690 5688 5687 5686 5686 5685 5685 5684 5683 5682 5680 5678 5678 5677 5674 5672 5670 5667 5664 5661 5659 5657 5656 5654
5696 5699 5721 5725 5724 5716 5701 5688 5687 5668 5664 5657 5664 5674 5684 5691 5689 5688 5686 5684 5682 5680 5680 5679 5679 5679 5678 5677 5676 5675 5672 5671 5670 5669 5668 5666 5664 5661 5658 5656 5654 5652 5651 5650
5705 5696 5709 5716 5718 5711 5703 5689 5673 5662 5653 5648 5658 5664 5664 5675 5676 5677 5676 5675 5674 5673 5672 5672 5672 5671 5671 5671 5670 5669 5667 5665 5664 5664 5662 5660 5658 5655 5652 5651 5649 5647 5647 5645
5705 5691 5695 5701 5696 5692 5692 5683 5668 5654 5653 5644 5641 5653 5673 5672 5672 5670 5669 5669 5668 5667 5666 5666 5665 5664 5665 5665 5664 5662 5661 5659 5659 5658 5656 5654 5652 5650 5648 5646 5645 5643 5642 5641
5697 5683 5677 5687 5698 5699 5692 5682 5669 5657 5650 5643 5638 5647 5673 5671 5670 5667 5665 5665 5664 5662 5660 5659 5659 5658 5659 5658 5656 5655 5655 5654 5654 5653 5651 5649 5648 5645 5644 5642 5641 5640 5638 5637
5695 5679 5668 5672 5679 5686 5681 5678 5669 5656 5645 5638 5636 5648 5669 5667 5665 5663 5660 5659 5658 5657 5655 5653 5653 5652 5651 5651 5650 5650 5650 5649 5649 5648 5645 5644 5642 5641 5639 5637 5636 5636 5634 5633
5696 5675 5667 5662 5665 5672 5671 5672 5669 5657 5643 5641 5644 5650 5659 5659 5657 5657 5655 5654 5652 5650 5649 5647 5646 5645 5645 5644 5645 5645 5644 5644 5643 5642 5640 5638 5637 5636 5634 5633 5632 5631 5629 5628
5688 5673 5673 5671 5674 5673 5669 5668 5667 5659 5653 5646 5650 5650 5652 5653 5653 5652 5652 5650 5647 5645 5644 5642 5641 5640 5639 5639 5639 5639 5639 5638 5637 5636 5635 5633 5632 5631 5630 5629 5628 5626 5625 5623
5676 5670 5669 5667 5672 5669 5664 5665 5663 5660 5656 5652 5651 5648 5651 5651 5651 5649 5647 5645 5643 5641 5640 5638 5637 5636 5635 5634 5634 5633 5633 5633 5632 5631 5629 5628 5628 5626 5625 5624 5623 5622 5621 5620
5667 5663 5657 5653 5661 5664 5652 5657 5657 5654 5653 5649 5643 5644 5647 5646 5645 5644 5642 5641 5639 5638 5636 5634 5632 5631 5630 5629 5628 5628 5628 5628 5626 5625 5625 5624 5623 5622 5621 5620 5619 5618 5617 5615
5663 5654 5644 5643 5650 5643 5650 5661 5658 5653 5650 5648 5645 5644 5642 5641 5641 5640 5639 5637 5636 5634 5632 5631 5629 5627 5626 5625 5625 5624 5623 5622 5622 5621 5620 5620 5619 5618 5617 5616 5615 5613 5612 5610
5662 5653 5640 5633 5634 5638 5649 5654 5651 5645 5642 5645 5640 5639 5638 5638 5636 5635 5637 5635 5633 5631 5629 5627 5626 5624 5623 5622 5621 5620 5619 5618 5618 5617 5617 5616 5615 5613 5611 5611 5610 5608 5606 5605
5655 5649 5638 5629 5630 5627 5640 5651 5654 5644 5633 5641 5638 5634 5631 5629 5622 5627 5633 5631 5629 5628 5626 5625 5623 5620 5619 5618 5617 5615 5614 5614 5614 5614 5613 5612 5610 5609 5607 5606 5604 5603 5602 5601
5644 5637 5630 5625 5623 5628 5641 5647 5646 5627 5625 5636 5634 5630 5626 5622 5622 5626 5628 5626 5625 5624 5623 5621 5619 5616 5615 5614 5613 5611 5611 5610 5611 5610 5609 5608 5607 5605 5604 5603 5601 5599 5598 5597
5635 5628 5624 5618 5616 5622 5641 5639 5630 5626 5631 5631 5629 5627 5624 5623 5623 5623 5622 5622 5621 5619 5618 5617 5613 5612 5612 5611 5609 5609 5608 5609 5608 5606 5606 5605 5603 5602 5601 5599 5597 5596 5594 5594
5630 5629 5624 5621 5623 5632 5634 5633 5632 5629 5626 5627 5625 5624 5622 5620 5620 5619 5618 5617 5615 5614 5613 5612 5609 5608 5608 5608 5607 5606 5607 5607 5605 5603 5602 5601 5600 5598 5597 5595 5593 5592 5592 5591
5631 5630 5623 5621 5627 5631 5631 5631 5630 5628 5625 5625 5624 5622 5620 5617 5616 5614 5613 5611 5610 5609 5608 5607 5605 5605 5605 5606 5605 5604 5605 5604 5602 5600 5599 5598 5596 5595 5594 5592 5591 5590 5589 5589
5627 5625 5619 5619 5625 5627 5629 5628 5627 5626 5625 5623 5622 5619 5616 5613 5611 5610 5609 5608 5606 5605 5604 5602 5601 5601 5602 5603 5602 5602 5602 5601 5599 5597 5596 5595 5594 5592 5591 5590 5589 5588 5588 5587
5624 5621 5617 5619 5624 5619 5622 5626 5625 5622 5621 5619 5617 5615 5614 5611 5609 5608 5606 5604 5603 5602 5601 5600 5599 5599 5600 5600 5600 5600 5599 5598 5596 5595 5594 5593 5592 5590 5589 5589 5589 5589 5587 5587